Location: Ash Swamp
(41.5170°N, 74.6157°W)
Time: 02:43:32
(UTC+00:00)

SL-24 DEB - Pass Details

Date: 14 July 2020
Orbit: 667 x 698 km, 92.0° (Epoch: 14 August)

Event Time Altitude Azimuth Distance (km) Brightness Sun altitude
Rises 05:51:44 0° 7° (N) 3,068 9.0 -25.9°
Reaches altitude 10° 05:54:01 10° 10° (N) 2,152 7.9 -25.8°
Maximum altitude 05:58:44 69° 93° (E) 745 4.3 -25.6°
Enters shadow 05:58:47 69° 98° (E) 745 4.3 -25.6°
